User: anonymous   Login
Location: Unspecified
(0.0000°N, 0.0000°E)
Time: 01:57:10
(UTC+01:00)
Language:

YAOGAN 1 - Orbit

View from above orbital plane
View from above orbital plane
View from above satellite
View from above satellite

Ground track
Ground track

The orbit data is extracted from the following two-line orbital elements,

1 29092U 06015A   18052.53181452  .00000042  00000-0  11779-4 0  9994
2 29092  97.9967  69.0584 0001430  90.2920 269.8457 14.82883929639310
Epoch (UTC): 21 February 2018 12:45:48
Eccentricity: 0.0001430
inclination: 97.9967°
perigee height: 619 km
apogee height: 621 km
right ascension of ascending node: 69.0584°
argument of perigee: 90.2920°
revolutions per day: 14.82883929
mean anomaly at epoch: 269.8457°
orbit number at epoch: 63931

The dashed part of the orbit path shows where the satellite is in the earth's shadow,  

DLR